Regional Weather Roundup
Issued by NWS

Home | Current Version | Previous Version | Graphics & Text | Print | Product List | Glossary On
Versions: 1 2 3 4 5 6 7 8 9 10 11 12 13 14 15 16 17 18 19 20 21 22 23 24 25 26 27 28 29 30 31 32 33 34 35 36 37 38 39 40 41 42 43 44 45 46 47 48 49 50
000
ASUS43 KLSX 291459
RWRMO

WEATHER SUMMARY FOR MISSOURI
NATIONAL WEATHER SERVICE SPRINGFIELD MO
900 AM CST THU JAN 29 2015

NOTE: "FAIR" INDICATES FEW OR NO CLOUDS BELOW 12,000 FEET WITH NO
       SIGNIFICANT WEATHER AND/OR OBSTRUCTIONS TO VISIBILITY.
       CURRENT SKY AND/OR WEATHER CONDITIONS ARE NOT AVAILABLE FOR
       CHILLICOTHE AND FARMINGTON.

MOZ001>031-035>038-043-044-053-054-291600-
...NORTHERN AND WESTERN MISSOURI...

CITY           SKY/WX    TMP DP  RH WIND       PRES   REMARKS
KANSAS CTY INT CLOUDY    38  28  67 N16G29    30.25R WCI  29
KANSAS C DTWN  CLOUDY    40  27  59 N14G24    30.26R
LEE`S SUMMIT   CLOUDY    37  29  72 N24G35    30.25R WCI  26
ST JOSEPH      CLOUDY    38  27  64 N24G35    30.28R WCI  27
CHILLICOTHE      N/A     39  29  67 NW10G23   30.22R
KIRKSVILLE     CLOUDY    37  31  78 NW16G26   30.15R WCI  28

$$
MOZ066>068-077>081-088>096-101>105-291600-
...SOUTHWEST MISSOURI...

CITY           SKY/WX    TMP DP  RH WIND       PRES   REMARKS
SPRINGFIELD    CLOUDY    43  36  76 NW16G25   30.18R
JOPLIN         CLOUDY    41  32  70 N17G29    30.27R

$$
MOZ032>034-039>042-045>050-055>058-069>072-291600-
...CENTRAL MISSOURI...

CITY           SKY/WX    TMP DP  RH WIND       PRES   REMARKS
COLUMBIA       CLOUDY    39  31  72 NW21G33   30.14R WCI  29
JEFFERSON CITY CLOUDY    41  34  76 NW17G29   30.16R
ROLLA          CLOUDY    39  32  76 NW20G26   30.10R WCI  29
SEDALIA        CLOUDY    40  30  67 NW21G26   30.20R
OSAGE BEACH    CLOUDY    39  30  70 NW12G26   30.18R

$$
MOZ051-052-059>065-291600-
...EAST CENTRAL MISSOURI...

CITY           SKY/WX    TMP DP  RH WIND       PRES   REMARKS
ST LOUIS INTL  CLOUDY    41  30  65 NW21G32   30.07R
SPIRIT OF STL  CLOUDY    40  30  67 NW20G32   30.08R
ST CHARLES     CLOUDY    40  31  70 NW20G31   30.06R

$$
MOZ072>076-082>087-097>100-106>115-291600-
...SOUTH CENTRAL AND SOUTHEAST MISSOURI...

CITY           SKY/WX    TMP DP  RH WIND       PRES   REMARKS
CAPE GIRARDEAU NOT AVBL
FARMINGTON     CLOUDY    43  30  61 NW20G25   30.09R
POPLAR BLUFF   SUNNY     53  38  56 NW17G26   30.02R
WEST PLAINS    CLOUDY    46  36  68 NW10G20   30.11R

$$



USA.gov is the U.S. government's official web portal to all federal, state and local government web resources and services.